TAPIOLA Weather Reports


time (UTC)temp
C
wind
direction
speed
KPH
gust
KPH
rain 1hr
cm
rain 24hr
cm
rain mn
cm
humidity
%
barometer
mb
20260906044453 10 328 17.7 33.8 0.00 0.10 0.00 88 1004.8
20260906042123 10 331 20.9 32.2 0.00 0.10 0.00 87 1004.3
20260906040453 10 323 17.7 30.6 0.00 0.10 0.00 88 1004.1
20260906034453 10 319 16.1 25.7 0.00 0.10 0.00 91 1003.8
20260906032453 9 305 16.1 24.1 0.00 0.10 0.00 92 1003.6
20260906030454 9 310 14.5 24.1 0.00 0.10 0.00 92 1003.4
20260906024454 8 314 14.5 22.5 0.00 0.10 0.00 93 1003.1
20260906022454 9 309 14.5 20.9 0.00 0.10 0.00 92 1002.9
20260906020453 9 304 14.5 20.9 0.00 0.10 0.00 92 1002.7
20260906014454 10 312 14.5 20.9 0.00 0.10 0.00 91 1002.4
20260906012453 9 315 16.1 24.1 0.00 0.10 0.00 92 1002.3
20260906010454 9 313 14.5 24.1 0.00 0.10 0.00 93 1002.1
20260906004455 9 310 14.5 24.1 0.00 0.10 0.00 92 1001.9
20260906002453 9 310 12.9 20.9 0.00 0.10 0.00 92 1001.7
20260906000455 10 313 14.5 22.5 0.00 0.10 0.00 92 1001.5
20260905234122 10 323 14.5 22.5 0.00 0.10 0.00 90 1001.2
20260905232452 10 323 14.5 25.7 0.00 0.10 0.00 90 1001.1
20260905230121 10 330 12.9 20.9 0.00 0.10 0.00 90 1000.8
20260905224452 11 324 14.5 20.9 0.00 0.10 0.00 90 1000.8
20260905222452 11 327 12.9 24.1 0.00 0.10 0.00 89 1000.6
20260905220121 11 331 14.5 22.5 0.00 0.10 0.00 89 1000.3
20260905214452 11 327 12.9 24.1 0.00 0.10 0.00 90 1000.2
20260905204452 12 321 14.5 20.9 0.00 0.10 0.10 86 999.6
20260905202121 12 323 14.5 20.9 0.00 0.10 0.10 85 999.4
20260905194452 13 309 14.5 22.5 0.00 0.10 0.10 81 999.1
20260905192452 13 306 14.5 20.9 0.00 0.10 0.10 79 999.0
20260905190452 14 309 11.3 17.7 0.00 0.10 0.10 76 998.9
20260905184453 14 317 12.9 20.9 0.00 0.10 0.10 75 998.7
20260905182121 13 307 11.3 19.3 0.00 0.10 0.10 83 998.6
20260905180450 12 299 9.7 14.5 0.00 0.10 0.10 90 998.5
20260905174120 12 284 6.4 9.7 0.00 0.10 0.10 88 998.3
20260905172450 12 289 8.0 12.9 0.00 0.10 0.10 88 998.2
20260905170451 13 303 9.7 14.5 0.00 0.10 0.10 88 998.0
20260905164452 13 302 9.7 14.5 0.00 0.10 0.10 87 997.8
20260905162122 14 308 9.7 12.9 0.00 0.10 0.10 81 997.5
20260905160451 15 315 6.4 9.7 0.00 0.10 0.10 72 997.3
20260905154451 15 338 6.4 14.5 0.00 0.10 0.10 76 997.1
20260905152453 15 345 9.7 14.5 0.00 0.10 0.10 72 997.1
20260905150450 16 329 9.7 14.5 0.00 0.10 0.10 65 996.9
20260905144451 16 314 8.0 17.7 0.00 0.10 0.10 71 996.7
20260905142451 16 283 8.0 20.9 0.00 0.10 0.10 66 996.7
20260905140452 15 169 8.0 11.3 0.00 0.10 0.10 85 996.4
20260905134450 15 131 8.0 9.7 0.00 0.23 0.10 86 996.3
20260905132450 17 31 9.7 19.3 0.00 0.23 0.10 66 996.2
20260905130454 16 175 6.4 11.3 0.00 0.23 0.10 76 996.1
20260905122450 15 124 4.8 6.4 0.10 0.23 0.10 95 996.0
20260905114450 13 9 6.4 12.9 0.00 0.15 0.00 88 995.9
20260905112452 17 200 6.4 17.7 0.00 0.15 0.00 60 995.4
20260905104450 16 275 6.4 14.5 0.00 0.15 0.00 52 995.2
20260905102450 16 296 6.4 9.7 0.00 0.15 0.00 57 995.2
20260905100450 15 337 3.2 9.7 0.00 0.15 0.00 73 995.1
20260905094449 16 316 8.0 12.9 0.00 0.15 0.00 68 995.0
20260905090450 16 274 8.0 14.5 0.00 0.15 0.00 73 994.8
20260905082452 15 324 9.7 14.5 0.00 0.15 0.00 75 994.6
20260905080119 15 314 8.0 11.3 0.00 0.15 0.00 78 994.5
20260905074449 14 289 8.0 12.9 0.00 0.15 0.00 78 994.5
20260905072448 14 275 6.4 9.7 0.00 0.15 0.00 81 994.4
20260905064449 11 314 3.2 4.8 0.00 0.15 0.00 99 994.2
20260905062448 11 341 4.8 6.4 0.00 0.15 0.00 100 994.1
20260905060449 10 346 3.2 6.4 0.00 0.15 0.00 100 994.1
20260905054450 9 12 3.2 6.4 0.00 0.15 0.00 100 994.1
20260905052448 8 359 4.8 6.4 0.00 0.15 0.00 100 994.1